This is the latest recevied weather packets stored in our database for station/object KN6DHD. If no packets are shown the sender has not sent any weather packets the latest 10 day(s).
| Time | Temp. | Humidity | Pressure | Rain* | Wind** | Luminosity | Snow |
|---|---|---|---|---|---|---|---|
| 1778085314 | 16.67° C | 81% | 1021.2 hPa | 0 mm | - | 175 W/m² | - |
| 1778085010 | 16.11° C | 82% | 1021.3 hPa | 0 mm | - | 164 W/m² | - |
| 1778084707 | 16.11° C | 81% | 1021.3 hPa | 0 mm | - | 158 W/m² | - |
| 1778084404 | 16.67° C | 82% | 1021.3 hPa | 0 mm | - | 151 W/m² | - |
| 1778084101 | 16.11° C | 82% | 1021.3 hPa | 0 mm | - | 146 W/m² | - |
| 1778083798 | 16.11° C | 82% | 1021.5 hPa | 0 mm | - | 131 W/m² | - |
| 1778083496 | 15.56° C | 83% | 1021.2 hPa | 0 mm | - | 125 W/m² | - |
| 1778083193 | 15.56° C | 83% | 1021.3 hPa | 0 mm | - | 116 W/m² | - |
| 1778082890 | 15.56° C | 83% | 1021.4 hPa | 0 mm | - | 109 W/m² | - |
| 1778081777 | 15.56° C | 83% | 1021.2 hPa | 0 mm | - | 98 W/m² | - |
| 1778081474 | 15.56° C | 83% | 1021.4 hPa | 0 mm | - | 95 W/m² | - |
| 1778081171 | 15.56° C | 83% | 1021.4 hPa | 0 mm | - | 92 W/m² | - |
| 1778080869 | 15.56° C | 83% | 1021.5 hPa | 0 mm | - | 88 W/m² | - |
| 1778080567 | 15.56° C | 83% | 1021.3 hPa | 0 mm | - | 83 W/m² | - |
| 1778080264 | 15.56° C | 83% | 1021.2 hPa | 0 mm | - | 82 W/m² | - |
| 1778079961 | 15° C | 83% | 1021.1 hPa | 0 mm | - | 80 W/m² | - |
| 1778079657 | 15° C | 84% | 1021.2 hPa | 0 mm | - | 77 W/m² | - |
| 1778079355 | 15° C | 85% | 1021.3 hPa | 0 mm | - | 72 W/m² | - |
| 1778079052 | 14.44° C | 85% | 1021.3 hPa | 0 mm | - | 67 W/m² | - |
| 1778078748 | 14.44° C | 85% | 1021.2 hPa | 0 mm | - | 62 W/m² | - |
| 1778078445 | 14.44° C | 85% | 1021.1 hPa | 0 mm | - | 56 W/m² | - |
| 1778078143 | 14.44° C | 85% | 1021.4 hPa | 0 mm | - | 55 W/m² | - |
| 1778077841 | 14.44° C | 86% | 1021.3 hPa | 0 mm | - | 52 W/m² | - |
| 1778077539 | 14.44° C | 86% | 1021 hPa | 0 mm | - | 46 W/m² | - |
| 1778077237 | 14.44° C | 86% | 1020.9 hPa | 0 mm | - | 44 W/m² | - |
* Rain latest hour (hover to see other rain measurements)
** Current wind speed in m/s (hover to see current wind gust speed)